Weather History for West Plains, MO

Change the Weather History Date:

Wednesday, March 27, 2013

  Actual Average Record
Temperature  
Mean Temperature 36 °F 51 °F  
Max Temperature 51 °F 64 °F 81 °F (1991)
Min Temperature 21 °F 39 °F 14 °F (1955)
Degree Days  
Heating Degree Days 29 14  
Month to date heating degree days 689 494  
Since 1 July heating degree days 4001 3958  
Cooling Degree Days 0 0  
Month to date cooling degree days 0 0  
Year to date cooling degree days 0 0  
Moisture  
Dew Point 23 °F    
Average Humidity 60    
Maximum Humidity 88    
Minimum Humidity 32    
Precipitation  
Precipitation 0.00 in 0.16 in 4.21 in (1977)
Month to date precipitation 3.64 3.62  
Year to date precipitation 10.96 9.18  
Sea Level Pressure  
Sea Level Pressure 30.34 in    
Wind  
Wind Speed 4 mph (SE)    
Max Wind Speed 10 mph    
Max Gust Speed 14 mph    
Visibility 10 miles    
Events      
T = Trace of Precipitation, MM = Missing Value Source: NWS Daily Summary

Daily Weather History Graph

Daily Weather History Graph

Search for Another Location

Airport:

Trip Planner

Search our weather history database for the weather conditions in past years. The results will help you decide how hot, cold, wet, or windy it might be!

Date:

Astronomy

Mar. 27, 2013 Rise Set
Actual Time 7:00 AM CDT 7:25 PM CDT
Civil Twilight 6:34 AM CDT 7:51 PM CDT
Nautical Twilight 6:03 AM CDT 8:22 PM CDT
Astronomical Twilight 5:32 AM CDT 8:53 PM CDT
Moon 8:07 PM CDT (3/27) 6:52 AM CDT (3/27)
Length of Visible Light 13h 17m
Length of Day
12h 25m
Full, 100% of the Moon is Illuminated
Mar 27
Full
Apr 2
Last Quarter
Apr 10
New
Apr 18
First Quarter
Apr 25
Full

Hourly Weather History & Observations

Time (CDT) Temp. Windchill Dew Point Humidity Pressure Visibility Wind Dir Wind Speed Gust Speed Precip Events Conditions
12:53 AM 28.0 °F - 19.9 °F 72% 30.36 in 10.0 mi Calm Calm - N/A   Clear
1:53 AM 26.1 °F - 19.9 °F 78% 30.37 in 10.0 mi Calm Calm - N/A   Clear
2:53 AM 24.1 °F - 19.0 °F 81% 30.35 in 10.0 mi Calm Calm - N/A   Clear
3:53 AM 21.9 °F - 18.0 °F 85% 30.35 in 10.0 mi Calm Calm - N/A   Clear
4:53 AM 23.0 °F - 19.0 °F 85% 30.36 in 10.0 mi Calm Calm - N/A   Clear
5:53 AM 21.9 °F - 18.0 °F 85% 30.35 in 10.0 mi Calm Calm - N/A   Clear
6:53 AM 21.0 °F - 17.1 °F 85% 30.37 in 10.0 mi Calm Calm - N/A   Clear
7:53 AM 28.0 °F - 21.0 °F 75% 30.39 in 10.0 mi Calm Calm - N/A   Clear
8:53 AM 33.1 °F 26.9 °F 21.9 °F 64% 30.40 in 10.0 mi ESE 6.9 mph - N/A   Clear
9:53 AM 37.0 °F 31.6 °F 23.0 °F 57% 30.40 in 10.0 mi SSE 6.9 mph - N/A   Clear
10:53 AM 41.0 °F 35.8 °F 23.0 °F 49% 30.40 in 10.0 mi SSW 8.1 mph - N/A   Clear
11:53 AM 44.1 °F 42.5 °F 25.0 °F 47% 30.38 in 10.0 mi Variable 3.5 mph - N/A   Clear
12:53 PM 46.0 °F 43.1 °F 23.0 °F 40% 30.37 in 10.0 mi South 5.8 mph - N/A   Scattered Clouds
1:53 PM 46.9 °F - 23.0 °F 39% 30.34 in 10.0 mi Variable 6.9 mph - N/A   Mostly Cloudy
2:53 PM 48.0 °F - 23.0 °F 37% 30.32 in 10.0 mi SE 6.9 mph - N/A   Scattered Clouds
3:53 PM 50.0 °F - 24.1 °F 36% 30.30 in 10.0 mi East 6.9 mph - N/A   Clear
4:53 PM 51.1 °F - 23.0 °F 33% 30.28 in 10.0 mi South 5.8 mph - N/A   Clear
5:53 PM 51.1 °F - 23.0 °F 33% 30.27 in 10.0 mi ESE 9.2 mph - N/A   Clear
6:53 PM 48.9 °F - 25.0 °F 39% 30.28 in 9.0 mi East 4.6 mph - N/A   Mostly Cloudy
7:53 PM 46.9 °F - 25.0 °F 42% 30.27 in 10.0 mi East 6.9 mph - N/A   Overcast
8:53 PM 45.0 °F 40.6 °F 26.1 °F 48% 30.28 in 10.0 mi ESE 8.1 mph - N/A   Mostly Cloudy
9:53 PM 45.0 °F 41.8 °F 28.0 °F 52% 30.30 in 10.0 mi SSE 5.8 mph - N/A   Overcast
10:53 PM 45.0 °F 42.6 °F 30.0 °F 56% 30.31 in 10.0 mi SE 4.6 mph - N/A   Overcast
11:53 PM 44.1 °F 42.5 °F 30.9 °F 60% 30.30 in 10.0 mi SE 3.5 mph - N/A   Overcast